EN

Hourly Weather Labrador City

Today, 5 August, Thursday

Time Temperature Precipitation Wind Pressure Humidity
00:00 +10°C° 0 mm 3 mps 711 mmHg 78%
01:00 +9°C° 0 mm 3 mps 711 mmHg 78%
02:00 +9°C° 0 mm 3 mps 711 mmHg 79%
03:00 +9°C° 0 mm 3 mps 711 mmHg 79%
04:00 +9°C° 0 mm 3 mps 711 mmHg 79%
05:00 +8°C° 0 mm 3 mps 711 mmHg 79%
06:00 +11°C° 0 mm 4 mps 711 mmHg 71%
07:00 +13°C° 0 mm 5 mps 711 mmHg 63%
08:00 +15°C° 0 mm 6 mps 711 mmHg 55%
09:00 +17°C° 0 mm 6 mps 711 mmHg 51%
10:00 +20°C° 0 mm 7 mps 711 mmHg 46%
11:00 +22°C° 0 mm 8 mps 710 mmHg 41%
12:00 +23°C° 0 mm 8 mps 710 mmHg 40%
13:00 +24°C° 0 mm 8 mps 710 mmHg 40%
14:00 +26°C° 0 mm 8 mps 710 mmHg 39%
15:00 +26°C° 0 mm 7 mps 709 mmHg 39%
16:00 +27°C° 0 mm 7 mps 709 mmHg 40%
17:00 +27°C° 0 mm 6 mps 709 mmHg 41%
18:00 +25°C° 0 mm 5 mps 708 mmHg 46%
19:00 +22°C° 0 mm 4 mps 708 mmHg 52%
20:00 +21°C° 0 mm 4 mps 708 mmHg 57%
21:00 +19°C° 0 mm 3 mps 708 mmHg 65%
22:00 +18°C° 0 mm 3 mps 708 mmHg 74%
23:00 +16°C° 0 mm 3 mps 708 mmHg 82%

Tomorrow, 6 August, Friday

Time Temperature Precipitation Wind Pressure Humidity
00:00 +16°C° 0 mm 3 mps 708 mmHg 85%
01:00 +16°C° 0 mm 3 mps 707 mmHg 87%
02:00 +14°C° 0 mm 3 mps 707 mmHg 90%
03:00 +14°C° 0.2 mm 3 mps 707 mmHg 92%
04:00 +14°C° 0.2 mm 3 mps 707 mmHg 93%
05:00 +14°C° 0.2 mm 3 mps 707 mmHg 95%
06:00 +14°C° 0.1 mm 3 mps 707 mmHg 94%
07:00 +16°C° 0.1 mm 2 mps 708 mmHg 93%
08:00 +16°C° 0.1 mm 2 mps 708 mmHg 92%
09:00 +16°C° 0 mm 2 mps 708 mmHg 92%
10:00 +16°C° 0 mm 2 mps 708 mmHg 91%
11:00 +16°C° 0 mm 3 mps 708 mmHg 91%
12:00 +18°C° 0.2 mm 4 mps 707 mmHg 82%
13:00 +20°C° 0.2 mm 5 mps 707 mmHg 72%
14:00 +21°C° 0.2 mm 7 mps 707 mmHg 63%
15:00 +21°C° 0.1 mm 7 mps 706 mmHg 64%
16:00 +20°C° 0.1 mm 7 mps 706 mmHg 66%
17:00 +20°C° 0.1 mm 7 mps 706 mmHg 67%
18:00 +19°C° 0.1 mm 6 mps 706 mmHg 69%
19:00 +19°C° 0.1 mm 6 mps 706 mmHg 71%
20:00 +17°C° 0.1 mm 5 mps 706 mmHg 74%
21:00 +17°C° 0.1 mm 5 mps 705 mmHg 76%
22:00 +16°C° 0.1 mm 6 mps 705 mmHg 79%
23:00 +16°C° 0.1 mm 6 mps 705 mmHg 81%

Day after tomorrow, 7 August, Saturday

Time Temperature Precipitation Wind Pressure Humidity
00:00 +15°C° 0.5 mm 6 mps 705 mmHg 85%
01:00 +15°C° 0.5 mm 5 mps 704 mmHg 89%
02:00 +15°C° 0.5 mm 5 mps 704 mmHg 94%
03:00 +14°C° 0.6 mm 5 mps 704 mmHg 94%
04:00 +13°C° 0.6 mm 4 mps 705 mmHg 94%
05:00 +12°C° 0.6 mm 4 mps 705 mmHg 95%
06:00 +11°C° 0 mm 4 mps 705 mmHg 93%
07:00 +10°C° 0 mm 3 mps 706 mmHg 91%
08:00 +10°C° 0 mm 3 mps 706 mmHg 89%
09:00 +10°C° 0 mm 3 mps 707 mmHg 81%
10:00 +11°C° 0 mm 3 mps 707 mmHg 73%
11:00 +12°C° 0 mm 3 mps 707 mmHg 65%
12:00 +14°C° 0 mm 3 mps 707 mmHg 58%
13:00 +16°C° 0 mm 3 mps 707 mmHg 52%
14:00 +17°C° 0 mm 3 mps 707 mmHg 45%
15:00 +17°C° 0 mm 4 mps 707 mmHg 45%
16:00 +17°C° 0 mm 4 mps 707 mmHg 44%
17:00 +17°C° 0 mm 4 mps 708 mmHg 43%
18:00 +14°C° 0 mm 4 mps 708 mmHg 48%
19:00 +13°C° 0 mm 4 mps 708 mmHg 54%
20:00 +11°C° 0 mm 3 mps 709 mmHg 59%
21:00 +9°C° 0 mm 3 mps 709 mmHg 64%
22:00 +8°C° 0 mm 3 mps 710 mmHg 69%
23:00 +6°C° 0 mm 2 mps 710 mmHg 74%

8 August, Sunday

Time Temperature Precipitation Wind Pressure Humidity
00:00 +6°C° 0 mm 2 mps 710 mmHg 76%
01:00 +6°C° 0 mm 1 mps 710 mmHg 79%
02:00 +5°C° 0 mm 1 mps 711 mmHg 81%
03:00 +6°C° 0 mm 1 mps 711 mmHg 79%
04:00 +6°C° 0 mm 1 mps 711 mmHg 77%
05:00 +6°C° 0 mm 1 mps 711 mmHg 75%
06:00 +8°C° 0 mm 1 mps 712 mmHg 69%
07:00 +8°C° 0 mm 2 mps 712 mmHg 62%
08:00 +10°C° 0 mm 2 mps 713 mmHg 56%
09:00 +12°C° 0 mm 3 mps 713 mmHg 51%
10:00 +13°C° 0 mm 3 mps 713 mmHg 47%
11:00 +15°C° 0 mm 4 mps 713 mmHg 43%
12:00 +16°C° 0 mm 3 mps 713 mmHg 41%
13:00 +17°C° 0 mm 3 mps 713 mmHg 38%
14:00 +18°C° 0 mm 3 mps 714 mmHg 36%
15:00 +19°C° 0 mm 3 mps 714 mmHg 36%
16:00 +19°C° 0 mm 2 mps 714 mmHg 36%
17:00 +19°C° 0 mm 2 mps 714 mmHg 36%
18:00 +17°C° 0 mm 2 mps 714 mmHg 44%
19:00 +15°C° 0 mm 1 mps 714 mmHg 51%
20:00 +13°C° 0 mm 1 mps 714 mmHg 59%
21:00 +12°C° 0 mm 1 mps 714 mmHg 61%
22:00 +12°C° 0 mm 1 mps 714 mmHg 64%
23:00 +11°C° 0 mm 1 mps 714 mmHg 66%

9 August, Monday

Time Temperature Precipitation Wind Pressure Humidity
00:00 +11°C° 0 mm 1 mps 714 mmHg 69%
01:00 +9°C° 0 mm 2 mps 714 mmHg 71%
02:00 +9°C° 0 mm 2 mps 714 mmHg 73%
03:00 +8°C° 0 mm 2 mps 714 mmHg 74%
04:00 +8°C° 0 mm 2 mps 714 mmHg 75%
05:00 +8°C° 0 mm 2 mps 714 mmHg 75%
06:00 +10°C° 0 mm 3 mps 714 mmHg 67%
07:00 +13°C° 0 mm 4 mps 714 mmHg 58%
08:00 +15°C° 0 mm 5 mps 714 mmHg 49%
09:00 +17°C° 0 mm 5 mps 714 mmHg 45%
10:00 +20°C° 0 mm 6 mps 714 mmHg 40%
11:00 +22°C° 0 mm 6 mps 714 mmHg 35%
12:00 +23°C° 0 mm 6 mps 714 mmHg 35%
13:00 +23°C° 0 mm 7 mps 713 mmHg 34%
14:00 +24°C° 0 mm 7 mps 713 mmHg 33%
15:00 +24°C° 0 mm 7 mps 713 mmHg 34%
16:00 +24°C° 0 mm 7 mps 712 mmHg 35%
17:00 +24°C° 0 mm 7 mps 711 mmHg 37%
18:00 +23°C° 0 mm 6 mps 711 mmHg 42%
19:00 +21°C° 0 mm 5 mps 711 mmHg 47%
20:00 +19°C° 0 mm 5 mps 711 mmHg 52%
21:00 +17°C° 0 mm 5 mps 710 mmHg 56%
22:00 +16°C° 0 mm 5 mps 710 mmHg 61%
23:00 +15°C° 0 mm 5 mps 710 mmHg 65%

10 August, Tuesday

Time Temperature Precipitation Wind Pressure Humidity
00:00 +14°C° 0 mm 5 mps 710 mmHg 70%
01:00 +14°C° 0 mm 5 mps 709 mmHg 75%
02:00 +14°C° 0 mm 5 mps 709 mmHg 80%
03:00 +14°C° 0 mm 5 mps 709 mmHg 81%
04:00 +13°C° 0 mm 5 mps 708 mmHg 83%
05:00 +13°C° 0 mm 5 mps 708 mmHg 84%
06:00 +15°C° 0 mm 5 mps 708 mmHg 79%
07:00 +16°C° 0 mm 6 mps 708 mmHg 74%
08:00 +19°C° 0 mm 6 mps 708 mmHg 69%
09:00 +19°C° 0.1 mm 6 mps 707 mmHg 70%
10:00 +20°C° 0.1 mm 6 mps 707 mmHg 71%
11:00 +20°C° 0.1 mm 6 mps 707 mmHg 71%
12:00 +21°C° 0.1 mm 5 mps 706 mmHg 72%
13:00 +21°C° 0.1 mm 5 mps 706 mmHg 72%
14:00 +21°C° 0.1 mm 5 mps 706 mmHg 72%
15:00 +21°C° 0.3 mm 4 mps 705 mmHg 75%
16:00 +21°C° 0.3 mm 4 mps 705 mmHg 77%
17:00 +21°C° 0.3 mm 3 mps 705 mmHg 80%
18:00 +20°C° 1 mm 3 mps 705 mmHg 84%
19:00 +20°C° 1 mm 3 mps 705 mmHg 88%
20:00 +19°C° 1 mm 3 mps 705 mmHg 92%
21:00 +19°C° 0.4 mm 3 mps 705 mmHg 93%
22:00 +19°C° 0.4 mm 4 mps 705 mmHg 95%
23:00 +19°C° 0.4 mm 4 mps 705 mmHg 96%
Show more